Wind_Speed
8 9 11 12 11 11 11 12 12 12 13 13 13 13 15 15 16 17 18 20 21 22 23 23 24 24 24 24 25 26 27 28 30 32 33 33 34 34 35 35 35 35 35 36
8 9 10 11 11 11 11 12 13 13 13 13 13 12 13 15 15 15 16 17 19 22 24 24 24 24 25 25 26 26 26 27 28 30 30 31 33 33 34 35 35 36 36 36
8 8 9 10 10 10 11 11 12 13 13 13 13 12 13 13 15 15 16 17 19 20 22 24 24 25 25 26 26 27 28 27 27 28 28 30 31 32 33 34 35 36 37 38
7 9 9 10 11 11 11 11 11 11 13 14 13 13 13 14 15 16 17 17 19 20 21 22 24 24 24 25 26 26 27 28 28 28 30 31 31 32 33 34 35 36 37 38
6 8 9 10 10 11 11 12 12 12 13 13 13 14 13 15 15 16 17 18 18 19 20 21 22 24 25 26 27 27 28 28 29 29 30 30 31 32 33 34 36 37 38 38
7 8 9 9 10 11 11 12 13 14 15 15 15 16 15 15 16 17 18 18 19 19 19 20 21 22 24 25 26 27 27 28 28 28 29 30 30 32 33 34 36 36 37 38
7 7 8 9 9 10 10 11 12 13 14 16 16 17 17 17 18 18 19 19 19 19 20 21 22 22 23 24 25 26 27 28 28 28 29 30 30 31 32 33 34 35 36 37
6 6 7 8 8 9 9 10 11 12 13 14 16 17 18 18 19 19 20 20 20 20 20 21 22 23 24 25 26 27 28 29 29 30 30 30 30 31 32 33 33 34 35 36
6 5 6 7 8 9 10 11 11 13 14 15 16 16 17 18 19 19 20 20 20 21 22 23 23 24 25 26 27 28 29 30 30 30 30 31 32 32 33 33 33 34 36 37
6 6 7 7 8 10 10 11 12 14 15 16 16 16 17 17 18 19 19 20 21 22 23 24 24 25 26 27 28 29 29 30 30 29 29 30 30 31 33 33 34 35 36 36
8 9 8 9 9 10 11 12 14 15 16 17 17 16 16 17 18 18 19 20 21 22 23 24 25 26 27 27 28 28 28 28 29 29 28 29 30 30 31 32 33 35 35 36
10 10 10 10 11 11 13 14 15 16 16 17 18 16 17 18 19 19 20 21 22 23 23 24 25 25 26 27 28 28 28 28 29 29 29 29 30 30 30 30 32 34 35 36
12 12 13 12 13 13 13 14 15 16 17 18 19 18 18 18 19 20 21 22 23 23 24 24 25 25 26 27 27 28 29 29 29 29 30 30 30 30 30 31 32 34 35 37
14 14 14 14 14 15 15 14 15 17 18 19 19 19 19 20 20 22 23 23 23 24 24 25 26 27 27 27 27 27 27 28 29 29 30 30 31 31 31 32 33 34 35 37
16 16 16 16 16 16 16 16 17 18 18 19 19 20 19 21 21 22 23 23 24 25 25 26 27 27 26 26 26 25 25 26 27 28 28 29 30 31 32 33 34 36 37 38
18 18 17 17 18 18 18 18 18 19 19 19 20 20 20 21 22 23 23 24 24 24 25 25 26 26 26 26 25 24 25 25 26 27 28 29 31 31 32 34 35 37 38 40
20 20 20 19 20 20 20 19 19 20 20 21 21 21 22 22 23 24 24 25 26 26 26 26 25 26 26 25 25 25 26 26 27 28 29 30 31 32 34 35 36 37 38 40
21 21 21 21 21 22 21 20 21 22 22 22 23 23 24 24 25 25 26 27 27 28 27 28 28 28 27 27 27 27 28 28 29 29 30 31 32 33 35 36 36 37 38 39
23 23 23 23 24 23 22 22 23 23 23 24 24 25 25 26 26 27 27 28 29 29 29 29 30 30 30 29 29 30 30 30 31 31 32 32 33 34 35 36 36 38 38 39
25 25 25 25 26 26 24 24 24 25 25 25 26 26 27 27 27 28 29 30 30 30 30 30 30 30 31 31 31 31 31 32 32 32 33 34 34 36 37 38 38 39 39 40
28 29 28 28 28 27 26 26 26 27 27 27 27 28 29 29 29 29 30 30 30 30 30 30 30 31 31 31 31 32 32 32 33 34 35 35 36 37 38 38 39 39 40 40
32 32 31 30 30 29 29 29 28 29 30 30 30 30 30 30 31 31 31 31 31 30 30 31 31 32 32 32 32 32 33 33 34 35 36 36 37 38 39 39 40 41 41 41
34 34 33 33 31 31 32 32 31 32 32 32 32 32 32 32 32 32 32 31 31 31 31 31 31 32 32 33 33 33 34 34 35 35 36 37 38 39 40 40 41 42 42 43
36 36 35 34 32 33 33 33 33 34 34 33 33 33 33 33 33 32 33 32 32 32 32 32 33 33 33 33 34 34 35 35 35 36 37 38 39 40 41 42 42 43 44 44
36 36 35 34 33 34 35 34 35 36 36 35 35 34 34 34 33 33 33 33 34 34 34 35 35 35 35 35 35 36 36 37 37 38 39 40 40 41 42 43 44 44 45 46
35 34 34 33 33 34 35 35 37 37 37 37 37 36 35 34 34 35 35 35 35 36 36 37 37 37 37 36 36 37 37 38 38 39 40 41 43 43 44 45 45 45 46 47
Wind_Direction
230 230 228 226 228 234 242 245 245 248 253 258 261 261 264 263 259 258 259 257 255 255 256 260 263 263 266 268 268 268 271 270 268 268 267 266 267 267 267 269 270 272 274 276
236 236 234 232 234 239 245 247 248 252 254 257 262 265 266 261 262 263 261 262 262 261 261 262 264 267 270 271 271 271 271 270 270 270 269 268 266 266 267 269 271 273 275 278
248 248 244 240 241 244 249 251 253 255 253 258 263 264 267 266 264 268 270 269 269 267 266 266 267 269 271 272 272 274 274 273 273 272 272 271 269 268 269 270 272 274 277 279
256 255 253 248 250 252 254 255 254 257 259 260 264 264 267 270 269 270 270 276 277 274 274 272 272 271 271 272 273 276 277 276 276 275 275 274 273 272 273 273 273 276 277 278
264 261 258 257 258 261 262 256 256 258 263 266 268 272 270 272 273 276 275 276 278 278 278 277 277 276 275 275 275 277 278 278 277 277 278 278 277 276 276 276 276 277 279 280
277 267 268 264 262 264 266 263 259 262 265 268 273 279 279 281 282 282 282 279 280 280 280 281 281 281 281 280 282 281 280 280 280 279 279 279 279 279 279 280 281 282 282 283
298 281 274 269 266 267 269 268 269 270 270 273 278 283 286 290 289 288 288 286 285 286 284 283 283 283 284 284 283 282 280 279 280 281 280 280 281 281 282 282 283 283 283 285
307 292 280 276 274 275 272 270 273 278 280 282 284 288 291 294 294 292 290 289 288 288 290 289 287 286 285 286 285 282 282 282 282 281 281 281 282 284 284 283 284 284 284 284
309 303 292 282 279 278 274 272 278 282 286 290 290 293 296 297 296 296 294 291 290 291 291 291 290 288 287 287 286 285 284 284 283 281 282 283 283 284 286 286 286 286 286 287
301 300 304 295 287 283 282 283 285 287 290 293 296 298 300 301 301 300 298 297 294 291 292 292 291 291 290 289 288 287 286 285 286 286 286 285 284 285 285 285 286 287 289 291
297 296 301 300 297 294 288 286 287 290 292 295 298 300 301 303 304 304 303 301 300 299 297 295 295 293 292 291 290 290 288 287 287 288 288 287 288 288 287 287 287 288 291 292
290 294 293 296 300 299 294 292 292 293 295 296 299 301 304 303 304 305 305 305 304 302 301 300 299 297 295 292 290 290 289 288 288 288 290 290 290 290 290 291 291 290 291 291
286 292 294 293 296 299 299 298 296 295 297 298 300 303 303 303 303 304 305 306 306 305 304 304 302 300 298 296 293 290 289 288 287 288 290 289 290 290 290 291 292 292 292 292
283 287 292 297 298 299 298 298 299 299 300 301 303 302 301 301 302 304 306 306 307 307 306 305 305 303 301 298 296 294 291 290 289 289 290 290 290 290 290 291 292 293 293 294
281 283 287 290 294 299 299 298 299 299 301 302 303 302 302 301 302 303 306 308 308 308 307 307 307 307 305 302 299 295 292 291 291 292 291 291 291 291 292 293 293 293 295 296
281 283 284 286 289 292 294 299 300 300 301 300 300 301 302 302 303 305 307 308 308 309 309 309 310 309 307 305 302 298 295 293 292 293 293 293 293 294 294 295 296 295 295 296
281 282 283 284 286 288 291 297 298 299 299 298 298 300 301 301 302 304 306 306 307 308 308 310 310 309 307 305 303 299 296 294 293 293 295 295 296 296 296 297 298 298 298 298
280 282 283 284 285 287 293 295 295 294 295 296 296 298 300 302 303 303 304 305 305 305 306 308 308 308 307 305 302 299 296 295 294 294 295 296 297 297 298 299 299 300 301 300
276 278 281 283 284 287 290 292 293 293 292 294 294 296 298 299 300 302 304 305 305 304 305 306 305 305 305 304 303 300 298 296 295 296 297 297 297 298 299 300 300 300 301 301
275 275 278 281 283 286 290 290 291 291 291 292 293 294 296 298 298 299 301 304 304 304 304 304 304 303 302 302 303 301 299 298 297 297 297 297 298 299 300 301 301 300 301 301
274 275 277 279 281 285 288 289 290 291 292 292 292 293 295 296 297 298 299 301 302 302 302 302 302 302 302 301 300 300 299 298 296 296 297 297 298 299 301 301 302 302 302 301
273 275 276 278 280 284 286 287 287 288 289 291 292 293 294 296 296 296 298 299 300 299 299 300 300 301 301 300 300 300 299 299 297 296 296 297 298 299 300 301 302 304 304 303
271 274 276 277 280 282 283 284 285 286 288 291 293 293 293 295 296 296 297 298 299 299 299 299 300 300 300 300 300 299 299 300 299 297 296 298 298 299 300 302 303 303 303 304
271 272 274 275 277 278 279 281 284 286 289 291 291 291 293 294 295 295 295 296 297 297 298 299 300 300 300 299 299 299 300 300 300 299 298 298 299 299 300 302 303 303 303 304
271 273 274 274 275 275 276 279 282 285 287 289 291 292 294 294 294 294 294 294 294 295 296 297 298 298 299 300 299 300 300 300 300 300 301 300 301 300 301 302 302 302 303 303
270 273 274 275 275 274 275 277 280 282 285 287 290 292 293 293 293 293 294 294 294 296 296 296 296 297 298 299 299 300 300 299 299 300 301 302 301 300 301 301 301 302 302 303
Height
5754 5756 5756 5757 5758 5760 5760 5762 5762 5762 5762 5763 5762 5762 5761 5760 5760 5760 5760 5761 5761 5761 5761 5761 5760 5761 5760 5759 5759 5758 5758 5757 5757 5757 5756 5757 5757 5756 5757 5756 5755 5754 5753 5752
5754 5754 5755 5755 5756 5757 5758 5759 5759 5760 5760 5760 5760 5759 5758 5757 5757 5757 5757 5757 5756 5756 5756 5756 5755 5755 5755 5754 5753 5753 5752 5751 5750 5749 5749 5748 5748 5748 5748 5747 5747 5746 5745 5743
5753 5754 5753 5754 5755 5756 5756 5757 5757 5757 5757 5757 5757 5757 5755 5755 5754 5754 5753 5752 5752 5752 5751 5751 5750 5750 5749 5748 5747 5746 5745 5744 5743 5742 5742 5741 5740 5739 5740 5739 5739 5737 5736 5735
5751 5751 5752 5753 5753 5753 5754 5754 5755 5755 5754 5754 5754 5753 5753 5751 5751 5750 5750 5749 5748 5747 5746 5745 5744 5743 5743 5742 5741 5740 5739 5738 5736 5735 5734 5733 5732 5732 5732 5731 5730 5729 5727 5725
5750 5750 5751 5751 5751 5751 5752 5752 5752 5752 5752 5751 5751 5750 5750 5748 5748 5747 5746 5745 5744 5743 5742 5740 5739 5738 5737 5736 5735 5733 5732 5731 5729 5728 5727 5725 5725 5724 5723 5722 5721 5720 5718 5716
5748 5749 5749 5749 5749 5749 5749 5750 5749 5749 5749 5749 5748 5747 5746 5746 5745 5744 5742 5741 5740 5739 5737 5736 5735 5733 5732 5731 5729 5727 5725 5724 5722 5721 5719 5718 5717 5716 5716 5714 5713 5711 5709 5707
5747 5747 5747 5747 5747 5747 5747 5748 5747 5746 5745 5745 5745 5743 5744 5742 5741 5739 5738 5736 5735 5734 5733 5731 5730 5728 5727 5725 5723 5721 5719 5717 5716 5714 5712 5711 5710 5709 5708 5706 5705 5703 5701 5698
5746 5746 5745 5745 5745 5745 5744 5745 5745 5744 5742 5742 5741 5739 5741 5739 5737 5735 5733 5732 5731 5729 5728 5726 5724 5723 5721 5719 5717 5715 5713 5711 5709 5707 5706 5704 5703 5702 5700 5698 5696 5694 5692 5689
5744 5744 5743 5743 5743 5743 5742 5742 5742 5741 5739 5739 5737 5737 5736 5734 5732 5731 5729 5727 5726 5724 5722 5721 5719 5717 5714 5713 5711 5708 5706 5704 5702 5701 5699 5697 5696 5694 5692 5690 5688 5686 5683 5681
5743 5743 5742 5741 5741 5740 5740 5739 5739 5738 5736 5735 5734 5733 5732 5730 5728 5726 5724 5722 5720 5719 5717 5715 5712 5710 5708 5706 5704 5701 5699 5697 5695 5693 5691 5690 5688 5686 5684 5682 5680 5677 5675 5672
5742 5741 5741 5740 5739 5738 5738 5737 5735 5734 5733 5732 5730 5732 5729 5726 5724 5722 5720 5717 5715 5713 5711 5708 5706 5704 5701 5699 5696 5694 5692 5690 5688 5686 5684 5682 5680 5678 5676 5673 5671 5669 5666 5663
5739 5739 5738 5738 5737 5735 5735 5734 5733 5732 5730 5728 5726 5729 5724 5722 5719 5717 5715 5713 5710 5707 5705 5702 5700 5697 5695 5692 5690 5687 5685 5683 5680 5678 5676 5674 5672 5670 5667 5665 5662 5660 5657 5654
5736 5736 5735 5735 5736 5734 5731 5730 5729 5728 5726 5725 5723 5725 5720 5717 5715 5713 5710 5708 5705 5702 5699 5696 5694 5691 5688 5685 5682 5680 5677 5675 5673 5670 5668 5666 5664 5661 5659 5656 5653 5651 5648 5645
5732 5732 5733 5732 5731 5729 5728 5727 5725 5724 5722 5721 5720 5718 5716 5713 5710 5708 5705 5702 5699 5697 5694 5691 5688 5684 5681 5678 5675 5672 5670 5667 5665 5663 5660 5658 5655 5653 5650 5647 5645 5642 5638 5635
5728 5728 5728 5727 5726 5725 5724 5723 5721 5719 5718 5717 5715 5713 5711 5708 5705 5703 5700 5697 5695 5692 5688 5685 5681 5678 5674 5671 5668 5665 5662 5660 5657 5655 5653 5650 5647 5644 5642 5639 5636 5633 5629 5626
5723 5724 5724 5723 5722 5720 5719 5719 5717 5715 5713 5711 5709 5708 5706 5703 5700 5698 5695 5692 5689 5686 5683 5679 5676 5672 5668 5665 5661 5658 5656 5653 5650 5648 5645 5642 5640 5637 5634 5630 5627 5623 5620 5616
5718 5718 5718 5718 5717 5715 5715 5715 5713 5711 5709 5706 5704 5703 5700 5698 5695 5692 5690 5687 5684 5681 5677 5674 5670 5666 5663 5659 5656 5652 5649 5646 5644 5641 5638 5635 5632 5629 5625 5622 5618 5614 5610 5606
5713 5712 5711 5711 5712 5710 5713 5709 5707 5705 5704 5701 5699 5697 5695 5692 5689 5687 5684 5681 5678 5675 5671 5668 5664 5660 5657 5653 5649 5646 5643 5640 5637 5634 5631 5628 5624 5620 5617 5613 5609 5605 5601 5596
5706 5706 5705 5704 5703 5703 5705 5703 5700 5698 5697 5695 5692 5691 5688 5686 5683 5681 5677 5674 5671 5668 5664 5661 5657 5654 5650 5646 5643 5639 5636 5633 5630 5626 5623 5619 5616 5612 5608 5604 5600 5596 5591 5586
5699 5699 5699 5697 5695 5696 5699 5697 5693 5692 5690 5689 5686 5683 5681 5679 5677 5675 5671 5667 5664 5660 5657 5653 5650 5646 5643 5639 5635 5632 5628 5625 5622 5618 5615 5611 5607 5603 5599 5595 5590 5586 5581 5576
5691 5691 5691 5690 5688 5688 5690 5688 5685 5685 5684 5681 5678 5676 5673 5671 5669 5667 5663 5660 5656 5653 5649 5646 5642 5639 5635 5631 5628 5624 5620 5617 5613 5609 5606 5602 5598 5594 5590 5585 5580 5576 5571 5566
5682 5682 5682 5681 5680 5683 5681 5679 5677 5676 5674 5672 5670 5667 5665 5663 5660 5658 5655 5652 5648 5645 5641 5637 5634 5631 5627 5623 5620 5616 5612 5608 5604 5600 5596 5593 5588 5584 5580 5575 5570 5565 5560 5555
5673 5674 5673 5674 5675 5674 5671 5669 5668 5666 5665 5663 5661 5659 5656 5654 5651 5649 5646 5643 5640 5636 5633 5629 5626 5622 5619 5615 5611 5607 5603 5599 5595 5591 5587 5583 5579 5574 5569 5565 5560 5555 5550 5544
5663 5663 5663 5663 5665 5663 5661 5659 5658 5657 5655 5653 5651 5649 5647 5645 5642 5640 5637 5634 5631 5628 5624 5621 5617 5614 5610 5606 5602 5598 5594 5589 5585 5581 5577 5573 5569 5564 5559 5554 5549 5544 5539 5533
5652 5652 5651 5652 5654 5652 5651 5650 5648 5647 5645 5643 5641 5639 5637 5635 5633 5630 5628 5625 5622 5619 5615 5612 5608 5604 5600 5596 5592 5588 5584 5579 5575 5571 5567 5562 5558 5553 5548 5543 5538 5532 5527 5521
5642 5642 5641 5642 5643 5641 5641 5640 5638 5636 5635 5633 5631 5629 5627 5625 5623 5620 5618 5615 5612 5609 5605 5602 5598 5594 5591 5586 5582 5578 5574 5569 5565 5561 5556 5551 5546 5541 5536 5531 5526 5520 5515 5509